Starlink 30392

operational
NORAD ID: 57855 Int'l Des: 2023-141 Owner: SPXS Country: US Constellation: starlink
LEOCIRCULAR

关于 Starlink 30392

正在加载描述...

实时位置

正在加载3D地球...

即将过境

高度历史

Altitude vs Time

uPlot chart will show altitude changes over time

两行轨道根数

1 57855U 23141R 25305.61697522 .00002514 00000-0 96927-4 0 9993
2 57855 53.1598 158.7157 0001316 85.7985 274.3167 15.30214946120727
Epoch: Nov 1, 2025 • Age: 12 hours

当前状态

高度 487.7 km
速度 7.62 km/s
星下点 -36.78°S, 33.76°E
发射日期 Sep 12, 2023
运行时间 2.1 years
类型 internet

技术详情

分类 Payload
质量 730.00 kg
干质量 700.00 kg
总质量 730.00 kg
长度 0.30 m
直径 4.10 m
跨度 29.00 m
形状 Box + pan
制造商 SPXS
平台类型 Starlink V2M
阶段状态 In Orbit
所有者/国家 SPXS/US

大型星座

Loading constellations...